Location: *
(33.8649°S, 62.1526°E)
Time: 12:55:09
(UTC+00:00)

USA 245 - Pass Details

Date: 17 January 2021
Orbit: 265 x 995 km, 97.9° (Epoch: 01 March)

Event Time Altitude Azimuth Distance (km) Brightness Sun altitude
Rises 17:59:45 0° 172° (S) 3,390 8.0 -28.3°
Reaches altitude 10° 18:02:22 10° 175° (S) 2,339 7.1 -28.6°
Enters shadow 18:06:47 54° 217° (SW) 825 4.4 -29.1°
